TimeEST,TemperatureF,Dew PointF,Humidity,Sea Level PressureIn,VisibilityMPH,Wind Direction,Wind SpeedMPH,Gust SpeedMPH,PrecipitationIn,Events,Conditions,WindDirDegrees,DateUTC
12:53 AM,62.1,57.9,86,30.22,8.0,NNW,3.5,-,N/A,,Clear,330,2013-01-26 05:53:00
1:53 AM,62.1,59.0,90,30.22,8.0,Calm,Calm,-,N/A,,Clear,0,2013-01-26 06:53:00
2:53 AM,61.0,57.9,90,30.20,8.0,Calm,Calm,-,N/A,,Clear,0,2013-01-26 07:53:00
3:53 AM,57.9,57.0,97,30.20,7.0,Calm,Calm,-,N/A,,Clear,0,2013-01-26 08:53:00
4:53 AM,60.1,57.9,93,30.21,9.0,NW,6.9,-,N/A,,Clear,320,2013-01-26 09:53:00
5:53 AM,59.0,57.9,96,30.22,8.0,NNW,6.9,-,N/A,,Clear,330,2013-01-26 10:53:00
6:53 AM,59.0,55.9,90,30.23,8.0,NNW,6.9,-,N/A,,Clear,340,2013-01-26 11:53:00
7:53 AM,61.0,53.1,75,30.25,10.0,NNW,6.9,-,N/A,,Clear,340,2013-01-26 12:53:00
8:53 AM,66.9,48.9,52,30.26,10.0,North,10.4,-,N/A,,Clear,350,2013-01-26 13:53:00
9:53 AM,72.0,51.1,48,30.27,10.0,North,11.5,-,N/A,,Clear,350,2013-01-26 14:53:00
10:53 AM,73.9,55.9,53,30.27,10.0,North,6.9,-,N/A,,Clear,350,2013-01-26 15:53:00
11:53 AM,75.9,57.0,52,30.25,10.0,Variable,4.6,-,N/A,,Clear,0,2013-01-26 16:53:00
12:53 PM,75.9,57.0,52,30.21,10.0,East,8.1,-,N/A,,Clear,80,2013-01-26 17:53:00
1:53 PM,75.0,57.0,53,30.19,10.0,ENE,9.2,-,N/A,,Clear,70,2013-01-26 18:53:00
2:53 PM,75.0,59.0,57,30.19,10.0,ENE,11.5,-,N/A,,Clear,60,2013-01-26 19:53:00
3:53 PM,75.0,59.0,57,30.18,10.0,ENE,10.4,-,N/A,,Clear,60,2013-01-26 20:53:00
4:53 PM,73.0,59.0,61,30.19,10.0,ENE,9.2,-,N/A,,Clear,70,2013-01-26 21:53:00
5:53 PM,72.0,60.1,66,30.19,10.0,ENE,5.8,-,N/A,,Clear,70,2013-01-26 22:53:00
6:53 PM,71.1,60.1,68,30.20,10.0,ENE,5.8,-,N/A,,Clear,60,2013-01-26 23:53:00
7:53 PM,71.1,61.0,70,30.21,10.0,NE,5.8,-,N/A,,Clear,50,2013-01-27 00:53:00
8:53 PM,69.1,61.0,75,30.21,10.0,ENE,5.8,-,N/A,,Clear,60,2013-01-27 01:53:00
9:53 PM,69.1,61.0,75,30.22,10.0,Calm,Calm,-,N/A,,Partly Cloudy,0,2013-01-27 02:53:00
10:53 PM,70.0,61.0,73,30.23,10.0,East,4.6,-,N/A,,Partly Cloudy,80,2013-01-27 03:53:00
11:53 PM,71.1,62.1,73,30.22,10.0,East,8.1,-,N/A,,Mostly Cloudy,90,2013-01-27 04:53:00